TAR723 LFPO-DTTA

Flight info

Callsign TAR723
Flight time N/A
Altitude 41000
Route LATRA DCT LAMUT DCT UTUVA DCT TITVA DCT NOQAS DCT OTROT DCT RETNO DCT KOLON DCT LOKDU DCT PELOS DCT IPROM DCT CAR/N0328F190 P161 MEDAR
Aircraft A332/H-SDE3GHIJ2J3J5M1RVWXY/LB2D1

Departure

Time N/A
Airport Paris-Orly Airport (LFPO)

Arrival

Time 2026-04-28 20:43
Airport Tunis Carthage International Airport (DTTA)
Time Latitude Longitude Altitude Speed Heading
2026-04-28 19:17 45.16204 4.35178 41002 ft 455 kts 126°
2026-04-28 19:17 45.12451 4.42445 41001 ft 457 kts 127°
2026-04-28 19:18 45.08523 4.49456 41001 ft 456 kts 131°
2026-04-28 19:18 45.04365 4.56178 41000 ft 455 kts 132°
2026-04-28 19:19 45.00167 4.62895 41000 ft 454 kts 131°
2026-04-28 19:19 44.96010 4.69605 41000 ft 453 kts 131°
2026-04-28 19:20 44.91887 4.76293 41000 ft 453 kts 131°
2026-04-28 19:20 44.87750 4.82998 41001 ft 452 kts 131°
2026-04-28 19:21 44.83620 4.89673 40999 ft 450 kts 131°
2026-04-28 19:21 44.79491 4.96330 41003 ft 450 kts 131°
2026-04-28 19:22 44.76056 5.01855 40999 ft 451 kts 131°
2026-04-28 19:22 44.71231 5.09596 40999 ft 451 kts 131°
2026-04-28 19:23 44.67108 5.16194 41000 ft 451 kts 131°
2026-04-28 19:23 44.62947 5.22838 41001 ft 455 kts 131°
2026-04-28 19:24 44.60142 5.27306 41001 ft 455 kts 131°
2026-04-28 19:24 44.54584 5.36142 41001 ft 455 kts 132°
2026-04-28 19:25 44.50376 5.42814 41002 ft 457 kts 132°
2026-04-28 19:25 44.46155 5.49489 40999 ft 456 kts 132°
2026-04-28 19:26 44.41967 5.56099 40999 ft 456 kts 132°
2026-04-28 19:26 44.37850 5.62879 41001 ft 456 kts 126°
2026-04-28 19:27 44.34202 5.70115 40999 ft 456 kts 124°
2026-04-28 19:27 44.30658 5.77414 41000 ft 455 kts 124°
2026-04-28 19:28 44.27101 5.84770 41001 ft 455 kts 124°
2026-04-28 19:28 44.23567 5.92035 41000 ft 454 kts 124°
2026-04-28 19:29 44.20606 5.98094 40998 ft 453 kts 124°
2026-04-28 19:29 44.16452 6.06565 40999 ft 454 kts 124°
2026-04-28 19:30 44.12856 6.13878 41001 ft 456 kts 124°
2026-04-28 19:30 44.09289 6.21112 41001 ft 455 kts 125°
2026-04-28 19:31 44.05692 6.28392 41000 ft 455 kts 125°
2026-04-28 19:31 44.02703 6.34427 41000 ft 457 kts 125°
2026-04-28 19:32 43.99108 6.41670 41000 ft 457 kts 125°
2026-04-28 19:32 43.95491 6.48939 41000 ft 457 kts 125°
2026-04-28 19:33 43.91867 6.56205 40999 ft 457 kts 125°
2026-04-28 19:33 43.88251 6.63434 40999 ft 458 kts 125°
2026-04-28 19:34 43.84621 6.70676 40999 ft 459 kts 125°
2026-04-28 19:34 43.80971 6.77938 40997 ft 458 kts 125°
2026-04-28 19:35 43.77318 6.85188 41000 ft 458 kts 125°
2026-04-28 19:35 43.73461 6.92212 41000 ft 457 kts 134°
2026-04-28 19:36 43.68504 6.97562 41001 ft 453 kts 152°
2026-04-28 19:36 43.62880 7.01447 41001 ft 450 kts 155°
2026-04-28 19:37 43.58135 7.04420 41001 ft 449 kts 156°
2026-04-28 19:37 43.51910 7.08283 40999 ft 448 kts 156°
2026-04-28 19:38 43.46123 7.11919 40998 ft 453 kts 156°
2026-04-28 19:38 43.40426 7.15522 40997 ft 452 kts 156°
2026-04-28 19:39 43.34837 7.19056 40997 ft 448 kts 156°
2026-04-28 19:39 43.29263 7.22571 40999 ft 447 kts 156°
2026-04-28 19:40 43.23588 7.26141 40999 ft 447 kts 156°
2026-04-28 19:40 43.17951 7.29679 40999 ft 447 kts 156°
2026-04-28 19:41 43.12272 7.33236 41000 ft 447 kts 156°
2026-04-28 19:41 43.06604 7.36779 40999 ft 447 kts 156°
2026-04-28 19:42 43.00968 7.40295 41000 ft 447 kts 156°
2026-04-28 19:42 42.96236 7.43241 40998 ft 447 kts 156°
2026-04-28 19:43 42.89631 7.47346 41002 ft 447 kts 156°
2026-04-28 19:43 42.83946 7.50871 41000 ft 447 kts 156°
2026-04-28 19:44 42.78302 7.54363 40999 ft 447 kts 156°
2026-04-28 19:44 42.72628 7.57867 41002 ft 447 kts 156°
2026-04-28 19:45 42.66940 7.61373 40999 ft 447 kts 156°
2026-04-28 19:45 42.61291 7.64847 41001 ft 447 kts 156°
2026-04-28 19:46 42.55606 7.68337 41000 ft 447 kts 156°
2026-04-28 19:46 42.49948 7.71802 41001 ft 447 kts 156°
2026-04-28 19:47 42.44272 7.75272 40999 ft 447 kts 156°
2026-04-28 19:47 42.38583 7.78744 41003 ft 447 kts 156°
2026-04-28 19:48 42.32923 7.82191 41000 ft 447 kts 156°
2026-04-28 19:48 42.27227 7.85652 41000 ft 447 kts 156°
2026-04-28 19:49 42.21577 7.89079 41000 ft 447 kts 156°
2026-04-28 19:49 42.15864 7.92537 41002 ft 447 kts 156°
2026-04-28 19:50 42.07369 7.97667 41002 ft 447 kts 156°
2026-04-28 19:51 42.01706 8.01078 40999 ft 447 kts 157°
2026-04-28 19:51 41.95775 8.03517 41000 ft 446 kts 171°
2026-04-28 19:52 41.89652 8.04710 41000 ft 446 kts 174°
2026-04-28 19:52 41.83477 8.05659 40999 ft 446 kts 174°
2026-04-28 19:53 41.77287 8.06589 41002 ft 446 kts 174°
2026-04-28 19:53 41.71146 8.07539 40998 ft 446 kts 174°
2026-04-28 19:54 41.64972 8.08510 41000 ft 446 kts 174°
2026-04-28 19:54 41.58835 8.09477 40999 ft 446 kts 174°
2026-04-28 19:55 41.52658 8.10449 41001 ft 446 kts 174°
2026-04-28 19:55 41.46521 8.11411 41001 ft 446 kts 174°
2026-04-28 19:56 41.40336 8.12379 40998 ft 446 kts 174°
2026-04-28 19:56 41.34194 8.13337 41003 ft 446 kts 174°
2026-04-28 19:57 41.28006 8.14301 40998 ft 446 kts 174°
2026-04-28 19:57 41.21869 8.15256 40998 ft 446 kts 174°
2026-04-28 19:58 41.15814 8.17064 40999 ft 447 kts 159°
2026-04-28 19:58 41.10279 8.20776 40999 ft 447 kts 152°
2026-04-28 19:59 41.04782 8.24693 41000 ft 448 kts 152°
2026-04-28 19:59 40.99280 8.28596 40999 ft 448 kts 152°
2026-04-28 20:00 40.93815 8.32473 41001 ft 448 kts 152°
2026-04-28 20:00 40.88312 8.36375 41001 ft 448 kts 152°
2026-04-28 20:01 40.82811 8.40269 41000 ft 448 kts 152°
2026-04-28 20:01 40.77346 8.44130 40999 ft 448 kts 152°
2026-04-28 20:02 40.71843 8.48011 40999 ft 448 kts 152°
2026-04-28 20:02 40.66353 8.51874 40999 ft 449 kts 152°
2026-04-28 20:03 40.60832 8.55753 41000 ft 449 kts 152°
2026-04-28 20:03 40.55301 8.59631 41000 ft 450 kts 152°
2026-04-28 20:04 40.49790 8.63488 41003 ft 451 kts 152°
2026-04-28 20:04 40.44225 8.67375 41001 ft 451 kts 152°
2026-04-28 20:05 40.38698 8.71228 41000 ft 451 kts 153°
2026-04-28 20:05 40.33148 8.75090 40999 ft 451 kts 153°
2026-04-28 20:06 40.27613 8.78935 41004 ft 452 kts 153°
2026-04-28 20:06 40.22050 8.82792 41000 ft 451 kts 153°
2026-04-28 20:07 40.16497 8.86634 40999 ft 450 kts 153°
2026-04-28 20:07 40.10987 8.90440 41001 ft 449 kts 153°
2026-04-28 20:08 40.05441 8.94263 40999 ft 450 kts 153°
2026-04-28 20:08 39.99923 8.98061 41001 ft 451 kts 153°
2026-04-28 20:09 39.94354 9.01886 41000 ft 450 kts 153°
2026-04-28 20:09 39.88828 9.05674 40999 ft 450 kts 153°
2026-04-28 20:10 39.83265 9.09482 41000 ft 452 kts 153°
2026-04-28 20:10 39.77685 9.13293 41000 ft 452 kts 153°
2026-04-28 20:11 39.72144 9.17072 41002 ft 451 kts 153°
2026-04-28 20:11 39.66565 9.20869 41000 ft 451 kts 153°
2026-04-28 20:12 39.61019 9.24636 40998 ft 450 kts 153°
2026-04-28 20:12 39.55459 9.28407 41001 ft 450 kts 153°
2026-04-28 20:13 39.49925 9.32152 41000 ft 451 kts 153°
2026-04-28 20:13 39.44343 9.35923 40999 ft 451 kts 153°
2026-04-28 20:14 39.38796 9.39664 41000 ft 451 kts 153°
2026-04-28 20:14 39.33254 9.43395 41003 ft 451 kts 153°
2026-04-28 20:15 39.27679 9.47142 41001 ft 451 kts 153°
2026-04-28 20:15 39.22112 9.50876 40998 ft 450 kts 153°
2026-04-28 20:16 39.16595 9.54570 41000 ft 449 kts 153°
2026-04-28 20:16 39.11079 9.58257 40711 ft 439 kts 153°
2026-04-28 20:17 39.06639 9.61221 40463 ft 426 kts 153°
2026-04-28 20:17 39.03160 9.63540 40007 ft 424 kts 153°
2026-04-28 20:17 39.01385 9.64722 39695 ft 425 kts 153°
2026-04-28 20:17 38.98778 9.66456 39270 ft 425 kts 153°
2026-04-28 20:18 38.95289 9.68775 38709 ft 425 kts 153°
2026-04-28 20:18 38.93510 9.69956 38433 ft 425 kts 153°
2026-04-28 20:18 38.90914 9.71679 37997 ft 424 kts 153°
2026-04-28 20:18 38.88286 9.73422 37565 ft 424 kts 153°
2026-04-28 20:19 38.85669 9.75157 37138 ft 423 kts 153°
2026-04-28 20:19 38.83045 9.76894 36701 ft 422 kts 153°
2026-04-28 20:19 38.80435 9.78621 36267 ft 421 kts 153°
2026-04-28 20:19 38.77818 9.80351 35812 ft 421 kts 153°
2026-04-28 20:20 38.75215 9.82070 35370 ft 420 kts 153°
2026-04-28 20:20 38.72647 9.83765 34794 ft 422 kts 153°
2026-04-28 20:20 38.70023 9.85494 34220 ft 424 kts 153°
2026-04-28 20:20 38.67376 9.87237 33696 ft 430 kts 153°
2026-04-28 20:21 38.64699 9.88999 33198 ft 434 kts 153°
2026-04-28 20:21 38.62001 9.90774 32684 ft 437 kts 153°
2026-04-28 20:21 38.59322 9.92534 32232 ft 438 kts 153°
2026-04-28 20:21 38.56605 9.94318 31776 ft 438 kts 153°
2026-04-28 20:22 38.53888 9.96101 31350 ft 439 kts 153°
2026-04-28 20:22 38.51166 9.97886 30918 ft 438 kts 153°
2026-04-28 20:22 38.48458 9.99659 30498 ft 436 kts 153°
2026-04-28 20:22 38.45763 10.01423 30073 ft 433 kts 153°
2026-04-28 20:23 38.43091 10.03170 29647 ft 430 kts 153°
2026-04-28 20:23 38.40466 10.04885 29228 ft 427 kts 153°
2026-04-28 20:23 38.37826 10.06608 28803 ft 424 kts 153°
2026-04-28 20:23 38.35206 10.08317 28377 ft 421 kts 153°
2026-04-28 20:24 38.32603 10.10014 27950 ft 419 kts 153°
2026-04-28 20:24 38.30009 10.11703 27522 ft 416 kts 153°
2026-04-28 20:24 38.27470 10.13354 27092 ft 413 kts 153°
2026-04-28 20:24 38.24912 10.15018 26664 ft 410 kts 153°
2026-04-28 20:25 38.22367 10.16671 26248 ft 408 kts 153°
2026-04-28 20:25 38.19843 10.18309 25834 ft 405 kts 153°
2026-04-28 20:25 38.17338 10.19934 25396 ft 403 kts 153°
2026-04-28 20:25 38.14878 10.21528 25073 ft 400 kts 153°
2026-04-28 20:26 38.12403 10.23131 24995 ft 399 kts 153°
2026-04-28 20:26 38.09928 10.24732 25004 ft 398 kts 153°
2026-04-28 20:26 38.07453 10.26332 25001 ft 398 kts 154°
2026-04-28 20:26 38.04913 10.27720 25005 ft 396 kts 164°
2026-04-28 20:27 38.02204 10.28347 24944 ft 395 kts 176°
2026-04-28 20:27 37.99454 10.28526 24270 ft 397 kts 180°
2026-04-28 20:27 37.96706 10.28694 23559 ft 400 kts 170°
2026-04-28 20:27 37.94112 10.29878 23136 ft 394 kts 153°
2026-04-28 20:28 37.91715 10.31526 22694 ft 388 kts 152°
2026-04-28 20:28 37.89329 10.33075 22230 ft 382 kts 159°
2026-04-28 20:28 37.86774 10.33961 21782 ft 378 kts 171°
2026-04-28 20:28 37.84206 10.34432 21335 ft 376 kts 173°
2026-04-28 20:29 37.81611 10.34864 20885 ft 374 kts 173°
2026-04-28 20:29 37.79026 10.35293 20427 ft 372 kts 173°
2026-04-28 20:29 37.76494 10.35713 19943 ft 368 kts 173°
2026-04-28 20:29 37.73972 10.36131 19381 ft 363 kts 173°
2026-04-28 20:30 37.71461 10.36549 18789 ft 361 kts 173°
2026-04-28 20:30 37.68967 10.36963 17827 ft 359 kts 173°
2026-04-28 20:30 37.66541 10.37367 16966 ft 352 kts 173°
2026-04-28 20:30 37.64127 10.37769 16108 ft 346 kts 173°
2026-04-28 20:31 37.61756 10.38165 15218 ft 342 kts 173°
2026-04-28 20:31 37.59408 10.38557 14570 ft 339 kts 173°
2026-04-28 20:31 37.57059 10.38950 13963 ft 338 kts 173°
2026-04-28 20:31 37.54747 10.39336 13386 ft 339 kts 173°
2026-04-28 20:32 37.52428 10.39724 12967 ft 333 kts 173°
2026-04-28 20:32 37.50140 10.40108 12547 ft 328 kts 173°
2026-04-28 20:32 37.47888 10.40486 12113 ft 322 kts 173°
2026-04-28 20:32 37.45684 10.40856 11685 ft 316 kts 173°
2026-04-28 20:33 37.43517 10.41221 11263 ft 311 kts 173°
2026-04-28 20:33 37.41397 10.41579 10966 ft 302 kts 173°
2026-04-28 20:33 37.39369 10.41923 10725 ft 293 kts 173°
2026-04-28 20:33 37.37361 10.42265 10402 ft 287 kts 173°
2026-04-28 20:34 37.35388 10.42601 10078 ft 283 kts 173°
2026-04-28 20:34 37.33463 10.42929 9754 ft 282 kts 173°
2026-04-28 20:34 37.31523 10.43261 9426 ft 280 kts 173°
2026-04-28 20:34 37.29592 10.43591 9101 ft 279 kts 173°
2026-04-28 20:35 37.27665 10.43920 8776 ft 278 kts 173°
2026-04-28 20:35 37.25744 10.43964 8446 ft 275 kts 192°
2026-04-28 20:35 37.24024 10.43052 8085 ft 271 kts 213°
2026-04-28 20:35 37.22492 10.41682 7717 ft 270 kts 218°
2026-04-28 20:36 37.20998 10.40258 7332 ft 268 kts 218°
2026-04-28 20:36 37.19518 10.38839 6957 ft 266 kts 218°
2026-04-28 20:36 37.18052 10.37434 6567 ft 263 kts 218°
2026-04-28 20:36 37.16619 10.36063 6163 ft 255 kts 218°
2026-04-28 20:37 37.15234 10.34738 5762 ft 249 kts 218°
2026-04-28 20:37 37.13864 10.33430 5356 ft 244 kts 218°
2026-04-28 20:37 37.12535 10.32165 4956 ft 240 kts 217°
2026-04-28 20:37 37.11153 10.31007 4565 ft 237 kts 211°
2026-04-28 20:38 37.09682 10.30091 4155 ft 235 kts 204°
2026-04-28 20:38 37.08187 10.29289 3752 ft 232 kts 203°
2026-04-28 20:38 37.06667 10.28629 3359 ft 230 kts 196°
2026-04-28 20:38 37.05136 10.28180 3051 ft 224 kts 193°
2026-04-28 20:39 37.03653 10.27786 2989 ft 208 kts 193°
2026-04-28 20:39 37.02285 10.27414 2991 ft 197 kts 194°
2026-04-28 20:39 37.00964 10.27044 2903 ft 190 kts 194°
2026-04-28 20:39 36.99709 10.26690 2664 ft 185 kts 194°
2026-04-28 20:40 36.98454 10.26348 2383 ft 183 kts 194°
2026-04-28 20:40 36.97223 10.26012 2145 ft 178 kts 194°
2026-04-28 20:40 36.96014 10.25681 1890 ft 176 kts 194°
2026-04-28 20:40 36.94841 10.25359 1675 ft 173 kts 194°
2026-04-28 20:41 36.93680 10.25042 1432 ft 166 kts 194°
2026-04-28 20:41 36.92593 10.24745 1223 ft 152 kts 194°
2026-04-28 20:41 36.91602 10.24474 1019 ft 139 kts 194°
2026-04-28 20:41 36.90696 10.24226 837 ft 127 kts 194°
2026-04-28 20:42 36.89864 10.24000 670 ft 121 kts 194°
2026-04-28 20:42 36.89038 10.23778 525 ft 121 kts 194°
2026-04-28 20:42 36.88213 10.23551 367 ft 121 kts 194°
2026-04-28 20:42 36.87401 10.23327 203 ft 120 kts 193°
2026-04-28 20:43 36.86579 10.23104 51 ft 120 kts 194°
2026-04-28 20:43 36.85871 10.22904 33 ft 79 kts 192°
2026-04-28 20:43 36.85501 10.22807 36 ft 42 kts 193°
2026-04-28 20:43 36.85225 10.22731 37 ft 39 kts 192°
2026-04-28 20:44 36.84995 10.22670 37 ft 16 kts 192°
2026-04-28 20:44 36.84933 10.22607 36 ft 12 kts 265°
2026-04-28 20:44 36.84963 10.22493 35 ft 15 kts 292°
2026-04-28 20:44 36.84953 10.22390 35 ft 13 kts 213°
2026-04-28 20:45 36.84861 10.22355 34 ft 15 kts 192°
2026-04-28 20:45 36.84783 10.22334 34 ft 12 kts 192°
2026-04-28 20:45 36.84690 10.22309 34 ft 14 kts 192°
2026-04-28 20:45 36.84601 10.22285 34 ft 11 kts 191°
2026-04-28 20:46 36.84523 10.22265 34 ft 12 kts 193°
2026-04-28 20:46 36.84492 10.22201 34 ft 7 kts 275°
2026-04-28 20:46 36.84497 10.22172 34 ft 0 kts 283°
2026-04-28 20:47 36.84501 10.22154 34 ft 4 kts 283°
2026-04-28 20:48 36.84499 10.22106 34 ft 7 kts 253°
2026-04-28 20:48 36.84471 10.22047 34 ft 8 kts 236°
2026-04-28 20:48 36.84450 10.22008 34 ft 3 kts 236°
2026-04-28 20:48 36.84445 10.21979 34 ft 4 kts 278°
2026-04-28 20:49 36.84462 10.21963 34 ft 4 kts 337°
2026-04-28 20:49 36.84494 10.21955 34 ft 4 kts 353°
2026-04-28 20:49 36.84516 10.21953 34 ft 3 kts 356°
2026-04-28 20:49 36.84528 10.21952 34 ft 0 kts 356°
2026-04-28 20:50 36.84529 10.21952 34 ft 0 kts 356°